Home > Weather > Viña del Mar > Past weeks

Flag for Chile Weather for the Past 2 Weeks in Viña del Mar, Chile

Now
66 °F

Clear.


Feels Like: 66 °F
Forecast: 59 / 74 °F
Wind: No wind

Location: Pudahuel

Current Time: Feb 9, 2016 at 9:48:44 AM

Latest Report: Feb 9, 2016 at 9:00 AM


Visibility: 4 mi

Pressure: 29.92 "Hg

Humidity: 64%

Dew point: 54 °F

Location of Viña del MarLocation

Historic Weather in Viña del Mar — Graph

°F

Viña del Mar Temperature Yesterday

Maximum temperature yesterday: 84 °F (at 5:00 PM)
Minimum temperature yesterday: 57 °F (at 5:00 AM)
Average temperature yesterday: 69 °F

High & Low Weather Summary for the Past Weeks

 TemperatureHumidityPressure
High93 °F (Jan 30, 5:00 PM)94% (Feb 1, 7:00 AM)30.07 "Hg (Feb 1, 7:00 AM)
Low55 °F (Feb 5, 8:00 AM)17% (Jan 30, 5:00 PM)29.86 "Hg (Jan 30, 5:00 PM)
Average70 °F58%29.95 "Hg
* Reported Jan 25 8:00 AM — Feb 9 8:00 AM, Viña del Mar, Weather by CustomWeather, © 2016

Note: Actual official high and low records may vary slightly from our data, if they occured in-between our weather recording intervals... More about our weather records

Advertising

Viña del Mar Weather History for the Previous 24 Hours

 ConditionsComfort  
Time TempWeatherWind HumidityBarometerVisibility
8:00 AM
Tue, Feb 9
61 °FClear.No wind72%29.92 "Hg4 mi
7:00 AM63 °FClear.2 mph73%29.92 "Hg4 mi
6:00 AM59 °FClear.1 mph72%29.89 "Hg5 mi
5:00 AM61 °FFog.N/A72%29.89 "HgN/A
4:00 AM64 °FClear.2 mph68%29.89 "Hg10 mi
3:00 AM64 °FClear.6 mph68%29.92 "Hg10 mi
2:00 AM66 °FClear.6 mph64%29.92 "Hg10 mi
1:00 AM68 °FClear.6 mph60%29.95 "Hg10 mi
12:00 AM70 °FPassing clouds.6 mph57%29.95 "HgN/A
11:00 PM
Mon, Feb 8
72 °FClear.9 mph53%29.95 "Hg10 mi
10:00 PM75 °FClear.7 mph47%29.92 "Hg10 mi
9:00 PM77 °FClear.10 mph39%29.92 "Hg10 mi
8:00 PM81 °FSunny.15 mph32%29.89 "Hg10 mi
7:00 PM82 °FSunny.15 mph30%29.89 "Hg10 mi
6:00 PM84 °FSunny.17 mph29%29.89 "Hg10 mi
5:00 PM84 °FPassing clouds.17 mph31%29.92 "HgN/A
4:00 PM82 °FSunny.16 mph35%29.95 "Hg10 mi
3:00 PM82 °FPassing clouds.14 mph37%29.95 "HgN/A
2:00 PM79 °FPassing clouds.10 mph42%29.95 "HgN/A
1:00 PM75 °FPassing clouds.8 mph44%29.98 "HgN/A
12:00 PM72 °FClear.5 mph53%29.98 "Hg5 mi
11:00 AM68 °FClear.3 mph60%29.98 "Hg5 mi
10:00 AM64 °FClear.2 mph68%30.01 "Hg5 mi
9:00 AM59 °FClear.5 mph82%30.01 "Hg5 mi
Weather by CustomWeather, © 2016

See weather overviewHow to use our weather pages